(111896) = 2002 FL4

Discovered at Desert Eagle on 2002-03-20 by W. K. Y. Yeung.

Orbit

Orbit type: Main Belt

Note: WebGL enabled browser required.

epoch2024-03-31.0
epoch JD2460400.5
perihelion date2023-07-10.04015
perihelion JD2460135.54015
argument of perihelion (°)186.45510
ascending node (°)22.46780
inclination (°)3.40683
eccentricity0.1770841
perihelion distance (AU)1.9072049
Tisserand w.r.t. Jupiter3.6
ΔV w.r.t. Earth (km/sec)8.6
semimajor axis (AU)2.3176182
mean anomaly (°)74.01523
mean daily motion (°/day)0.27934510
aphelion distance (AU)2.728
period (years)3.53
P-vector [x]-0.87534723
P-vector [y]-0.44089796
P-vector [z]-0.19843442
Q-vector [x]0.48296115
Q-vector [y]-0.77806864
Q-vector [z]-0.40169356
absolute magnitude16.32
phase slope0.15
uncertainty0
referenceMPEC 2024-C107
observations used956
oppositions17
arc length (days)8260
first opposition used2000
last opposition used2023
residual rms (arc-secs)0.62
perturbers coarse indicatorM-v
perturbers precise indicator003Ek
first observation date used2000-10-26.0
last observation date used2023-06-08.0
computer nameMPCLINUX
JD of orbit computation2456966.870995
perihelion JD uncertainty (days)5.0738E-05
argument of perihelion uncertainty (°)6.2534E-05
ascending node uncertainty (°)6.1308E-05
inclination uncertainty (°)5.2736E-06
eccentricity uncertainty 4.7289E-08
perihelion distance uncertainty (AU)1.0793E-07
Minimum Orbit Intersection Distances (in AU)
for orbit epoch: 2460200.5, reference: E2024-CA7
Mercury1.46653
Venus1.18659
Earth0.90137
Mars0.28574
Jupiter2.22978
Saturn6.46318
Uranus16.388
Neptune27.1115

Observations

978 total observations over interval: 2000 10 26.40055 – 2023 06 08.183333
These data are available for download (format description).

Date (UT) J2000 RA J2000 Dec Magn Location Ref
2000 10 26.40055 03 27 57.85 +21 06 16.4 20.3 V 691 – Steward Observatory, Kitt Peak-Spacewatch MPS 90442
2000 10 26.42329 03 27 56.56 +21 06 14.0 20.4 V 691 – Steward Observatory, Kitt Peak-Spacewatch MPS 90442
2000 10 26.44705 03 27 55.19 +21 06 11.0 20.3 V 691 – Steward Observatory, Kitt Peak-Spacewatch MPS 90442
2002 02 07.46057 13 25 56.53 -06 31 27.5 18.8   704 – Lincoln Laboratory ETS, New Mexico MPS 55853
2002 02 07.47567 13 25 57.12 -06 31 34.3 19.7   704 – Lincoln Laboratory ETS, New Mexico MPS 55853
2002 02 07.49076 13 25 57.82 -06 31 37.2 19.3   704 – Lincoln Laboratory ETS, New Mexico MPS 55853
2002 02 07.52127 13 25 59.02 -06 31 47.1 19.6   704 – Lincoln Laboratory ETS, New Mexico MPS 55853
2002 03 09.39222 13 34 09.37 -08 00 20.1 18.4   704 – Lincoln Laboratory ETS, New Mexico MPS 55853
2002 03 09.41335 13 34 08.93 -08 00 21.2 18.7   704 – Lincoln Laboratory ETS, New Mexico MPS 55853
2002 03 09.43473 13 34 08.54 -08 00 22.2 18.6   704 – Lincoln Laboratory ETS, New Mexico MPS 55853
2002 03 09.45658 13 34 08.16 -08 00 22.0 18.9   704 – Lincoln Laboratory ETS, New Mexico MPS 55853
2002 03 09.47772 13 34 07.78 -08 00 23.0 18.7   704 – Lincoln Laboratory ETS, New Mexico MPS 55853
2002 03 16.44039 13 31 36.11 -08 00 50.9 18.6   704 – Lincoln Laboratory ETS, New Mexico MPS 55853
2002 03 16.45462 13 31 35.70 -08 00 50.2 18.7   704 – Lincoln Laboratory ETS, New Mexico MPS 55853
2002 03 16.48311 13 31 34.81 -08 00 48.0 18.8   704 – Lincoln Laboratory ETS, New Mexico MPS 55853
2002 03 18.45461 13 30 33.93 -07 59 35.4 18.8   704 – Lincoln Laboratory ETS, New Mexico MPS 55853
2002 03 18.47009 13 30 33.37 -07 59 34.8 18.9   704 – Lincoln Laboratory ETS, New Mexico MPS 55853
2002 03 18.48546 13 30 32.94 -07 59 34.8 18.3   704 – Lincoln Laboratory ETS, New Mexico MPS 55853
2002 03 20.32203 13 29 29.88 -07 58 00.0 19.0 V 333 – Desert Eagle Observatory MPS 52831
2002 03 20.32322 13 29 29.60 -07 57 57.1 20.2 V 333 – Desert Eagle Observatory MPS 55036
2002 03 20.32443 13 29 29.75 -07 57 58.7 19.0 V 333 – Desert Eagle Observatory MPS 52831
2002 03 20.34168 13 29 29.10 -07 57 58.1 18.9 V 333 – Desert Eagle Observatory MPS 52831
2002 03 20.34289 13 29 29.06 -07 57 57.7 19.0 V 333 – Desert Eagle Observatory MPS 55036
2002 03 20.34411 13 29 29.00 -07 57 58.1 18.8 V 333 – Desert Eagle Observatory MPS 52831
2002 03 20.35885 13 29 28.44 -07 57 57.3 17.8 R 699 – Lowell Observatory-LONEOS MPS 55853
2002 03 20.35994 13 29 28.40 -07 57 57.3 19.0 V 333 – Desert Eagle Observatory MPS 52831
2002 03 20.36116 13 29 28.33 -07 57 56.8 19.4 V 333 – Desert Eagle Observatory MPS 55036
2002 03 20.36375 13 29 28.18 -07 57 56.3 19.0 V 333 – Desert Eagle Observatory MPS 52831
2002 03 20.37136 13 29 27.94 -07 57 56.3   699 – Lowell Observatory-LONEOS MPS 55853
2002 03 20.38387 13 29 27.45 -07 57 56.3   699 – Lowell Observatory-LONEOS MPS 55853
2002 03 20.39639 13 29 26.95 -07 57 54.5   699 – Lowell Observatory-LONEOS MPS 55853
2002 03 21.28697 13 28 54.30 -07 56 56.6 19.8 V 333 – Desert Eagle Observatory MPS 52831
2002 03 21.29096 13 28 54.14 -07 56 57.6 19.5 V 333 – Desert Eagle Observatory MPS 52831
2002 03 21.29987 13 28 53.65 -07 56 56.9 19.3 V 333 – Desert Eagle Observatory MPS 52831
2002 03 21.30383 13 28 53.60 -07 56 57.3 19.2 V 333 – Desert Eagle Observatory MPS 52831
2002 03 21.31214 13 28 53.16 -07 56 56.2 19.1 V 333 – Desert Eagle Observatory MPS 52831
2002 03 27.32512 13 24 36.21 -07 48 01.8 18.8   644 – Palomar Mountain/NEAT MPS 55853
2002 03 27.39191 13 24 32.85 -07 47 54.5 18.7   644 – Palomar Mountain/NEAT MPS 55853
2002 03 27.45699 13 24 29.56 -07 47 47.3 19.7   644 – Palomar Mountain/NEAT MPS 55853
2002 04 03.47143 13 18 29.71 -07 32 57.2 19.0   644 – Palomar Mountain/NEAT MPS 55853
2002 04 03.48200 13 18 29.12 -07 32 55.9 18.4   644 – Palomar Mountain/NEAT MPS 55853
2002 04 03.49246 13 18 28.52 -07 32 54.2 18.7   644 – Palomar Mountain/NEAT MPS 55853
2002 04 05.27118 13 16 50.99 -07 28 37.5 17.2   644 – Palomar Mountain/NEAT MPS 55853
2002 04 05.28194 13 16 50.30 -07 28 36.6 17.3 R 699 – Lowell Observatory-LONEOS MPS 55853
2002 04 05.29519 13 16 49.53 -07 28 34.6   699 – Lowell Observatory-LONEOS MPS 55853
2002 04 05.30843 13 16 48.74 -07 28 32.7   699 – Lowell Observatory-LONEOS MPS 55853
2002 04 05.32209 13 16 47.92 -07 28 30.5   699 – Lowell Observatory-LONEOS MPS 55853
2002 04 05.34967 13 16 46.36 -07 28 26.0 17.6   644 – Palomar Mountain/NEAT MPS 55853
2002 04 05.41460 13 16 42.54 -07 28 16.1 17.4   644 – Palomar Mountain/NEAT MPS 55853
2002 04 10.30069 13 12 05.77 -07 15 56.6 17.7   704 – Lincoln Laboratory ETS, New Mexico MPS 55853
2002 04 10.31291 13 12 05.03 -07 15 54.9 17.7   704 – Lincoln Laboratory ETS, New Mexico MPS 55853
2002 04 10.32466 13 12 04.34 -07 15 53.1 17.7   704 – Lincoln Laboratory ETS, New Mexico MPS 55853
2002 04 10.33606 13 12 03.64 -07 15 51.2 17.8   704 – Lincoln Laboratory ETS, New Mexico MPS 55853
2002 04 10.34745 13 12 02.96 -07 15 49.3 17.7   704 – Lincoln Laboratory ETS, New Mexico MPS 55854
2002 04 11.60702 13 10 50.50 -07 12 34.2 18.2   608 – Haleakala-AMOS MPS 55854
2002 04 11.61720 13 10 49.90 -07 12 32.4 18.3   608 – Haleakala-AMOS MPS 55854
2002 04 11.62806 13 10 49.28 -07 12 30.6 18.4   608 – Haleakala-AMOS MPS 55854
2002 04 12.30525 13 10 11.31 -07 10 48.3 17.5   704 – Lincoln Laboratory ETS, New Mexico MPS 55854
2002 04 12.31983 13 10 10.42 -07 10 46.0 17.8   704 – Lincoln Laboratory ETS, New Mexico MPS 55854
2002 04 12.33567 13 10 09.45 -07 10 43.6 17.8   704 – Lincoln Laboratory ETS, New Mexico MPS 55854
2002 04 12.35027 13 10 08.58 -07 10 40.9 18.0   704 – Lincoln Laboratory ETS, New Mexico MPS 55854
2002 04 14.24219 13 08 21.81 -07 05 56.4 17.4   644 – Palomar Mountain/NEAT MPS 55854
2002 04 14.26903 13 08 20.21 -07 05 52.4 17.2   644 – Palomar Mountain/NEAT MPS 55854
2002 04 14.26907 13 08 20.12 -07 05 52.8 17.6   704 – Lincoln Laboratory ETS, New Mexico MPS 55854
2002 04 14.28313 13 08 19.29 -07 05 50.8 17.9   704 – Lincoln Laboratory ETS, New Mexico MPS 55854
2002 04 14.29719 13 08 18.44 -07 05 48.9 17.8   704 – Lincoln Laboratory ETS, New Mexico MPS 55854
2002 04 14.30969 13 08 17.79 -07 05 46.2 17.3   644 – Palomar Mountain/NEAT MPS 55854
2002 04 14.31126 13 08 17.61 -07 05 47.1 17.7   704 – Lincoln Laboratory ETS, New Mexico MPS 55854
2002 04 14.32537 13 08 16.77 -07 05 45.0 17.8   704 – Lincoln Laboratory ETS, New Mexico MPS 55854
2002 04 15.24481 13 07 25.51 -07 03 27.2 17.6   644 – Palomar Mountain/NEAT MPS 55854
2002 04 15.26746 13 07 24.16 -07 03 24.0 17.4   644 – Palomar Mountain/NEAT MPS 55854
2002 04 15.31289 13 07 21.49 -07 03 17.2 17.5   644 – Palomar Mountain/NEAT MPS 55854
2002 04 18.27313 13 04 38.96 -06 56 14.5 17.8   704 – Lincoln Laboratory ETS, New Mexico MPS 55854
2002 04 18.28676 13 04 38.24 -06 56 12.7 18.5   704 – Lincoln Laboratory ETS, New Mexico MPS 55854
2002 04 18.30037 13 04 37.38 -06 56 10.4 17.6   704 – Lincoln Laboratory ETS, New Mexico MPS 55854
2002 04 18.31407 13 04 36.65 -06 56 08.1 18.2   704 – Lincoln Laboratory ETS, New Mexico MPS 55854
2002 04 18.32794 13 04 35.86 -06 56 06.4 18.4   704 – Lincoln Laboratory ETS, New Mexico MPS 55854
2002 04 18.40180 13 04 31.76 -06 55 56.9 17.6   644 – Palomar Mountain/NEAT MPS 55854
2002 04 18.41284 13 04 31.14 -06 55 55.3 17.6   644 – Palomar Mountain/NEAT MPS 55854
2002 04 18.42355 13 04 30.54 -06 55 54.0 17.7   644 – Palomar Mountain/NEAT MPS 55854
2002 04 29.27834 12 55 55.65 -06 36 40.8 18.1   644 – Palomar Mountain/NEAT MPS 55036
2002 04 29.29919 12 55 54.76 -06 36 39.5 18.0   644 – Palomar Mountain/NEAT MPS 55036
2002 04 29.32837 12 55 53.55 -06 36 36.3 18.0   644 – Palomar Mountain/NEAT MPS 55036
2002 05 04.21491 12 53 00.15 -06 32 45.9 18.2 R 699 – Lowell Observatory-LONEOS MPS 55036
2002 05 04.22927 12 52 59.71 -06 32 45.8   699 – Lowell Observatory-LONEOS MPS 55036
2002 05 04.24369 12 52 59.23 -06 32 44.9   699 – Lowell Observatory-LONEOS MPS 55036
2002 05 04.25805 12 52 58.73 -06 32 45.1   699 – Lowell Observatory-LONEOS MPS 55036
2002 05 08.21548 12 51 11.11 -06 32 18.9 18.3   704 – Lincoln Laboratory ETS, New Mexico MPS 55036
